GW3496 Weather Reports


Display with metric or nautical units.
time (UTC)temp
F
wind
direction
speed
MPH
gust
MPH
rain 1hr
in
rain 24hr
in
rain mn
in
humidity
%
barometer
mb
20260509044538 59 210 6.0 10.0 0.00 0.00 0.00 54 1010.1
20260509043035 59 197 6.0 10.0 0.00 0.00 0.00 53 1010.2
20260509041532 60 202 5.0 11.0 0.00 0.00 0.00 52 1010.1
20260509040048 60 238 6.0 10.0 0.00 0.00 0.00 50 1010.2
20260509034541 61 192 4.0 9.0 0.00 0.00 0.00 49 1010.5
20260509033030 62 208 4.0 7.0 0.00 0.00 0.00 48 1010.7
20260509031535 62 211 2.0 7.0 0.00 0.00 0.00 47 1010.8
20260509030035 63 161 4.0 7.0 0.00 0.00 0.00 46 1010.6
20260509024529 63 201 5.0 8.0 0.00 0.00 0.00 45 1010.7
20260509023032 63 167 4.0 10.0 0.00 0.00 0.00 45 1010.6
20260509021534 64 184 5.0 11.0 0.00 0.00 0.00 44 1010.5
20260509020028 64 203 4.0 10.0 0.00 0.00 0.00 43 1010.3
20260509014535 65 149 4.0 9.0 0.00 0.00 0.00 42 1010.3
20260509013035 66 151 4.0 9.0 0.00 0.00 0.00 41 1010.4
20260509011550 66 186 3.0 10.0 0.00 0.00 0.00 40 1010.4
20260509010038 67 200 5.0 10.0 0.00 0.00 0.00 39 1010.1
20260509004541 67 216 5.0 11.0 0.00 0.00 0.00 39 1010.1
20260509003035 68 205 6.0 12.0 0.00 0.00 0.00 38 1010.1
20260509001533 69 161 7.0 11.0 0.00 0.00 0.00 38 1010.0
20260509000033 69 191 6.0 11.0 0.00 0.00 0.00 37 1009.8
20260508234533 70 180 7.0 12.0 0.00 0.00 0.00 36 1009.4
20260508233030 70 198 10.0 15.0 0.00 0.00 0.00 36 1009.5
20260508231536 71 207 8.0 12.0 0.00 0.00 0.00 35 1009.4
20260508230041 71 210 9.0 18.0 0.00 0.00 0.00 35 1009.2
20260508224534 71 263 7.0 14.0 0.00 0.00 0.00 35 1009.3
20260508223042 71 217 10.0 21.0 0.00 0.00 0.00 34 1009.3
20260508221532 72 325 12.0 21.0 0.00 0.00 0.00 33 1009.4
20260508220036 72 162 7.0 19.0 0.00 0.00 0.00 34 1009.4
20260508214538 72 186 6.0 21.0 0.00 0.00 0.00 33 1009.6
20260508213035 73 209 9.0 24.0 0.00 0.00 0.00 32 1009.6
20260508211534 72 161 11.0 19.0 0.00 0.00 0.00 33 1009.7
20260508210034 72 189 6.0 15.0 0.00 0.00 0.00 32 1009.7
20260508204536 72 223 7.0 17.0 0.00 0.00 0.00 32 1009.8
20260508203040 71 227 4.0 20.0 0.00 0.00 0.00 33 1009.9
20260508201537 71 140 7.0 12.0 0.00 0.00 0.00 33 1009.9
20260508200043 71 235 8.0 17.0 0.00 0.00 0.00 34 1010.3
20260508194540 71 139 8.0 15.0 0.00 0.00 0.00 34 1010.2
20260508193052 72 109 8.0 14.0 0.00 0.00 0.00 33 1010.3
20260508191540 70 242 11.0 18.0 0.00 0.00 0.00 34 1010.7
20260508190037 70 243 8.0 18.0 0.00 0.00 0.00 34 1010.8
20260508184538 69 250 6.0 20.0 0.00 0.01 0.00 35 1011.2
20260508183040 69 236 5.0 15.0 0.00 0.01 0.00 35 1011.6
20260508181549 69 204 5.0 15.0 0.00 0.01 0.00 35 1011.6
20260508180041 69 63 9.0 21.0 0.00 0.01 0.00 36 1011.6
20260508174542 68 280 7.0 13.0 0.00 0.01 0.00 38 1011.9
20260508173035 68 207 9.0 17.0 0.00 0.01 0.00 36 1012.0
20260508171544 67 264 9.0 17.0 0.00 0.01 0.00 37 1012.4
20260508170042 66 252 9.0 14.0 0.00 0.01 0.00 38 1012.5
20260508164540 66 17 6.0 17.0 0.00 0.01 0.00 40 1012.7
20260508163038 66 221 8.0 15.0 0.00 0.01 0.00 38 1013.1
20260508161533 65 236 4.0 11.0 0.00 0.01 0.00 40 1013.4
20260508160057 66 206 5.0 12.0 0.00 0.01 0.00 40 1013.6
20260508154538 64 119 5.0 12.0 0.00 0.01 0.00 39 1013.6
20260508153045 64 258 6.0 12.0 0.00 0.01 0.00 42 1013.8
20260508151533 63 199 4.0 9.0 0.00 0.01 0.00 41 1014.0
20260508150037 63 333 1.0 9.0 0.00 0.01 0.00 40 1013.9
20260508144538 62 278 3.0 12.0 0.00 0.01 0.00 38 1014.1
20260508143046 61 269 7.0 12.0 0.00 0.01 0.00 40 1014.2
20260508141547 61 271 2.0 8.0 0.00 0.01 0.00 43 1014.1
20260508140046 60 19 0.0 8.0 0.00 0.01 0.00 45 1014.0
20260508134536 59 340 3.0 8.0 0.00 0.01 0.00 47 1014.3
20260508133047 58 302 1.0 5.0 0.00 0.01 0.00 55 1014.5
20260508131539 57 263 2.0 5.0 0.00 0.01 0.00 57 1014.5
20260508130034 56 308 0.0 5.0 0.00 0.01 0.00 59 1014.4
20260508124538 55 285 2.0 8.0 0.00 0.01 0.00 59 1014.5
20260508123040 54 284 0.0 5.0 0.00 0.01 0.00 64 1014.4
20260508121601 52 263 0.0 2.0 0.00 0.01 0.00 68 1013.8
20260508120039 51 275 1.0 3.0 0.00 0.01 0.00 77 1014.0
20260508114539 50 241 0.0 0.0 0.00 0.01 0.00 82 1013.9
20260508113041 49 241 0.0 0.0 0.00 0.01 0.00 84 1013.7
20260508111550 48 241 0.0 0.0 0.00 0.01 0.00 84 1013.8
20260508110045 47 242 0.0 0.0 0.00 0.01 0.00 84 1013.4
20260508104541 46 241 0.0 0.0 0.00 0.01 0.00 83 1013.2
20260508103041 46 241 0.0 0.0 0.00 0.01 0.00 82 1012.5
20260508101538 46 240 0.0 0.0 0.00 0.01 0.00 82 1012.4
20260508100045 46 199 0.0 0.0 0.00 0.01 0.00 82 1012.2
20260508094542 46 300 0.0 0.0 0.00 0.01 0.00 81 1012.2
20260508093039 47 307 1.0 3.0 0.00 0.01 0.00 81 1012.0
20260508091540 47 281 0.0 4.0 0.00 0.01 0.00 81 1012.2
20260508090045 47 292 3.0 4.0 0.00 0.01 0.00 82 1011.9
20260508084538 48 294 1.0 4.0 0.00 0.01 0.00 82 1012.0
20260508083115 48 261 0.0 0.0 0.00 0.01 0.00 82 1011.8
20260508081541 49 297 0.0 0.0 0.00 0.01 0.00 82 1011.4
20260508080055 49 284 0.0 3.0 0.00 0.01 0.00 81 1011.7
20260508074539 50 292 1.0 5.0 0.00 0.01 0.00 81 1011.5
20260508073056 50 284 3.0 6.0 0.00 0.01 0.00 82 1011.3
20260508071543 50 286 3.0 8.0 0.00 0.01 0.00 85 1011.2
20260508070048 49 17 5.0 9.0 0.00 0.01 0.00 88 1011.0
20260508064601 49 288 4.0 9.0 0.00 0.01 0.00 89 1010.9
20260508063051 50 286 5.0 10.0 0.00 0.01 0.00 89 1010.6
20260508061532 50 300 5.0 11.0 0.00 0.01 0.00 89 1010.3
20260508060027 50 290 6.0 10.0 0.00 0.01 0.00 88 1010.3
20260508054530 50 313 4.0 9.0 0.00 0.03 0.00 88 1010.3
20260508053028 50 281 2.0 4.0 0.00 0.03 0.00 87 1010.3
20260508051528 51 313 0.0 0.0 0.00 0.03 0.00 87 1010.4
20260508050034 51 267 0.0 3.0 0.00 0.03 0.00 86 1010.2